| time (UTC) | temp F | wind direction | speed MPH | gust MPH | rain 1hr in | rain 24hr in | rain mn in | humidity % | barometer mb |
| 20260502221516 | 61 | 213 | 4.0 | 8.0 | 0.00 | 0.00 | 0.00 | 77 | 1008.5 |
| 20260502220019 | 61 | 157 | 4.0 | 9.0 | 0.00 | 0.00 | 0.00 | 77 | 1008.5 |
| 20260502214514 | 61 | 170 | 5.0 | 9.0 | 0.00 | 0.00 | 0.00 | 76 | 1008.7 |
| 20260502213013 | 60 | 211 | 4.0 | 9.0 | 0.00 | 0.00 | 0.00 | 78 | 1008.7 |
| 20260502211512 | 61 | 214 | 3.0 | 8.0 | 0.00 | 0.00 | 0.00 | 80 | 1008.8 |
| 20260502210006 | 60 | 176 | 3.0 | 6.0 | 0.00 | 0.00 | 0.00 | 81 | 1009.1 |
| 20260502204503 | 59 | 200 | 4.0 | 6.0 | 0.00 | 0.00 | 0.00 | 82 | 1009.2 |
| 20260502203001 | 59 | 220 | 2.0 | 6.0 | 0.00 | 0.00 | 0.00 | 83 | 1009.4 |
| 20260502201559 | 58 | 219 | 4.0 | 8.0 | 0.00 | 0.00 | 0.00 | 82 | 1009.6 |
| 20260502200128 | 57 | 153 | 3.0 | 6.0 | 0.00 | 0.00 | 0.00 | 84 | 1009.7 |
| 20260502194608 | 58 | 222 | 2.0 | 6.0 | 0.00 | 0.00 | 0.00 | 84 | 1009.8 |
| 20260502193057 | 59 | 146 | 2.0 | 7.0 | 0.00 | 0.00 | 0.00 | 84 | 1009.8 |
| 20260502191600 | 58 | 182 | 1.0 | 3.0 | 0.00 | 0.00 | 0.00 | 85 | 1009.9 |
| 20260502190053 | 57 | 184 | 1.0 | 3.0 | 0.00 | 0.00 | 0.00 | 84 | 1009.9 |
| 20260502184551 | 56 | 226 | 0.0 | 3.0 | 0.00 | 0.00 | 0.00 | 86 | 1009.9 |
| 20260502183050 | 55 | 223 | 0.0 | 3.0 | 0.00 | 0.00 | 0.00 | 87 | 1010.0 |
| 20260502181547 | 55 | 220 | 1.0 | 3.0 | 0.00 | 0.00 | 0.00 | 87 | 1009.9 |
| 20260502163039 | 53 | 233 | 0.0 | 0.0 | 0.00 | 0.00 | 0.00 | 92 | 1009.9 |
| 20260502161542 | 53 | 233 | 0.0 | 0.0 | 0.00 | 0.00 | 0.00 | 93 | 1009.8 |
| 20260502151527 | 52 | 234 | 0.0 | 0.0 | 0.00 | 0.00 | 0.00 | 95 | 1010.1 |
| 20260502130109 | 51 | 234 | 0.0 | 0.0 | 0.00 | 0.00 | 0.00 | 95 | 1010.2 |
| 20260502123057 | 51 | 238 | 0.0 | 0.0 | 0.00 | 0.00 | 0.00 | 94 | 1010.3 |
| 20260502121602 | 51 | 238 | 0.0 | 0.0 | 0.00 | 0.00 | 0.00 | 94 | 1010.4 |
| 20260502120113 | 51 | 238 | 0.0 | 0.0 | 0.00 | 0.00 | 0.00 | 94 | 1010.6 |
| 20260502114558 | 51 | 238 | 0.0 | 0.0 | 0.00 | 0.00 | 0.00 | 94 | 1010.6 |
| 20260502113112 | 52 | 238 | 0.0 | 0.0 | 0.00 | 0.00 | 0.00 | 94 | 1010.7 |
| 20260502111559 | 52 | 238 | 0.0 | 0.0 | 0.00 | 0.00 | 0.00 | 94 | 1010.6 |
| 20260502104550 | 52 | 238 | 0.0 | 0.0 | 0.00 | 0.00 | 0.00 | 94 | 1010.6 |
| 20260502103110 | 51 | 238 | 0.0 | 0.0 | 0.00 | 0.00 | 0.00 | 93 | 1010.6 |
| 20260502101553 | 52 | 238 | 0.0 | 0.0 | 0.00 | 0.00 | 0.00 | 93 | 1010.5 |
| 20260502071519 | 51 | 238 | 0.0 | 0.0 | 0.00 | 0.00 | 0.00 | 94 | 1012.0 |
| 20260502070017 | 51 | 238 | 0.0 | 0.0 | 0.00 | 0.00 | 0.00 | 94 | 1012.0 |
| 20260502064514 | 50 | 238 | 0.0 | 0.0 | 0.00 | 0.00 | 0.00 | 94 | 1012.0 |
| 20260502063016 | 50 | 238 | 0.0 | 0.0 | 0.00 | 0.00 | 0.00 | 94 | 1012.1 |
| 20260502061513 | 50 | 238 | 0.0 | 0.0 | 0.00 | 0.00 | 0.00 | 94 | 1012.1 |
| 20260502060013 | 50 | 238 | 0.0 | 0.0 | 0.00 | 0.00 | 0.00 | 93 | 1012.3 |
| 20260502054513 | 50 | 238 | 0.0 | 0.0 | 0.00 | 0.00 | 0.00 | 93 | 1012.4 |
| 20260502053012 | 50 | 238 | 0.0 | 0.0 | 0.00 | 0.00 | 0.00 | 93 | 1012.5 |
| 20260502051512 | 50 | 238 | 0.0 | 0.0 | 0.00 | 0.00 | 0.00 | 93 | 1012.6 |
| 20260502050010 | 50 | 238 | 0.0 | 0.0 | 0.00 | 0.00 | 0.00 | 93 | 1012.6 |
| 20260502044510 | 50 | 238 | 0.0 | 1.0 | 0.00 | 0.00 | 0.00 | 92 | 1012.6 |
| 20260502043010 | 50 | 238 | 0.0 | 1.0 | 0.00 | 0.00 | 0.00 | 92 | 1012.7 |
| 20260502041508 | 51 | 238 | 0.0 | 1.0 | 0.00 | 0.00 | 0.00 | 91 | 1012.6 |
| 20260502040009 | 51 | 238 | 0.0 | 1.0 | 0.00 | 0.00 | 0.00 | 91 | 1012.5 |
| 20260502034508 | 51 | 238 | 0.0 | 1.0 | 0.00 | 0.00 | 0.00 | 90 | 1012.3 |
| 20260502033008 | 52 | 238 | 0.0 | 2.0 | 0.00 | 0.00 | 0.00 | 89 | 1012.2 |
| 20260502031503 | 53 | 237 | 0.0 | 1.0 | 0.00 | 0.00 | 0.00 | 88 | 1012.1 |
| 20260502030003 | 54 | 237 | 0.0 | 0.0 | 0.00 | 0.00 | 0.00 | 87 | 1012.2 |
| 20260502024502 | 54 | 237 | 0.0 | 2.0 | 0.00 | 0.00 | 0.00 | 85 | 1012.1 |
| 20260502023002 | 55 | 238 | 0.0 | 2.0 | 0.00 | 0.00 | 0.00 | 84 | 1012.0 |
| 20260502021559 | 56 | 238 | 0.0 | 2.0 | 0.00 | 0.00 | 0.00 | 84 | 1012.1 |
| 20260502020058 | 56 | 234 | 1.0 | 3.0 | 0.00 | 0.00 | 0.00 | 82 | 1012.2 |
| 20260502014557 | 58 | 227 | 2.0 | 5.0 | 0.00 | 0.00 | 0.00 | 81 | 1012.3 |
| 20260502013100 | 59 | 207 | 2.0 | 4.0 | 0.00 | 0.00 | 0.00 | 80 | 1012.2 |
| 20260502011556 | 59 | 248 | 2.0 | 4.0 | 0.00 | 0.00 | 0.00 | 79 | 1012.3 |
| 20260502010057 | 60 | 250 | 2.0 | 5.0 | 0.00 | 0.00 | 0.00 | 76 | 1012.3 |
| 20260502004555 | 60 | 199 | 1.0 | 5.0 | 0.00 | 0.00 | 0.00 | 80 | 1012.5 |
| 20260502003055 | 60 | 213 | 1.0 | 6.0 | 0.00 | 0.00 | 0.00 | 78 | 1012.7 |
| 20260502001651 | 61 | 173 | 1.0 | 4.0 | 0.00 | 0.00 | 0.00 | 76 | 1012.6 |
| 20260502000048 | 59 | 188 | 0.0 | 2.0 | 0.00 | 0.00 | 0.00 | 79 | 1012.7 |
| 20260501234551 | 58 | 232 | 0.0 | 2.0 | 0.00 | 0.00 | 0.00 | 81 | 1012.7 |
| 20260501233054 | 58 | 232 | 1.0 | 3.0 | 0.00 | 0.00 | 0.00 | 81 | 1012.9 |
| 20260501231545 | 59 | 230 | 2.0 | 4.0 | 0.00 | 0.00 | 0.00 | 80 | 1013.0 |
| 20260501230043 | 59 | 229 | 1.0 | 4.0 | 0.00 | 0.00 | 0.00 | 81 | 1013.1 |
| 20260501224543 | 58 | 223 | 3.0 | 5.0 | 0.00 | 0.00 | 0.00 | 80 | 1013.3 |
| 20260501223051 | 60 | 199 | 3.0 | 5.0 | 0.00 | 0.00 | 0.00 | 80 | 1013.4 |